Starlink 1648

operational
NORAD ID: 46533 Int'l Des: 2020-070 Owner: SPXS Country: US Constellation: starlink
LEOCIRCULARSTARLINK_TYPE

Über Starlink 1648

Beschreibung wird geladen...

Live-Position

3D-Globus wird geladen...

Nächste Überflüge

Höhenverlauf

Altitude vs Time

uPlot chart will show altitude changes over time

Zweizeiliger Elementsatz

1 46533U 20070B 25351.33339120 .00189460 00000-0 33823-2 0 9999
2 46533 53.0520 172.3866 0001408 64.1091 81.5526 15.48883746 5898
Epoch: 17. Dez. 2025 • Age: 12 hours

Aktueller Status

Höhe 433.1 km
Geschwindigkeit 7.65 km/s
Subsatellitenpunkt -40.01°S, 111.5°E
Startdatum 6. Okt. 2020
Alter 5.1 years
Typ internet

Technische Details

Klassifizierung Payload
Masse 260.00 kg
Trockenmasse 248.00 kg
Gesamtmasse 260.00 kg
Länge 0.20 m
Durchmesser 2.80 m
Spannweite 9.00 m
Form Box + pan
Hersteller SPXS
Bus-Typ Starlink
Phasenstatus In Orbit
Besitzer/Staat SPXS/US

Große Konstellationen

Loading constellations...